EST,Max TemperatureF,Mean TemperatureF,Min TemperatureF,Max Dew PointF,MeanDew PointF,Min DewpointF,Max Humidity, Mean Humidity, Min Humidity, Max Sea Level PressureIn, Mean Sea Level PressureIn, Min Sea Level PressureIn, Max VisibilityMiles, Mean VisibilityMiles, Min VisibilityMiles, Max Wind SpeedMPH, Mean Wind SpeedMPH, Max Gust SpeedMPH,PrecipitationIn, CloudCover, Events, WindDirDegrees
2013-1-1,32,26,20,31,25,16,100,84,68,30.17,30.09,30.03,10,5,2,14,5,15,0.02,8,Snow,320
2013-1-2,23,16,9,18,11,3,100,77,54,30.29,30.23,30.12,10,7,3,8,4,8,0.00,5,,275
2013-1-3,29,20,11,22,15,3,81,69,56,30.32,30.26,30.19,10,10,7,22,11,26,0.00,5,,238
2013-1-4,29,24,19,23,18,14,84,74,63,30.35,30.32,30.26,10,10,7,25,16,30,0.00,2,,244
2013-1-5,38,28,18,26,22,16,92,76,59,30.38,30.30,30.17,10,9,6,17,9,23,0.00,4,,208
2013-1-6,36,31,25,34,26,19,88,82,75,30.36,30.13,30.01,10,6,2,25,13,30,0.01,8,Rain-Snow,251
2013-1-7,36,29,21,25,23,19,92,78,64,30.50,30.39,30.27,10,7,2,14,7,17,0.00,1,,195
2013-1-8,44,35,26,31,26,21,82,70,57,30.35,30.28,30.24,10,8,6,12,7,15,0.00,2,,180
2013-1-9,46,39,31,38,34,28,92,81,70,30.54,30.34,30.20,10,9,7,20,11,24,0.06,5,Rain,228
2013-1-10,42,35,27,36,30,26,100,81,62,30.56,30.42,30.12,10,8,2,20,9,24,0.01,7,Fog-Rain,112
2013-1-11,59,51,42,54,49,35,93,83,72,30.12,29.95,29.90,10,9,3,23,14,31,0.54,7,Rain,193
2013-1-12,64,58,51,61,55,48,100,89,77,30.03,29.94,29.78,10,7,0,18,11,29,0.12,6,Rain,187
2013-1-13,65,49,33,60,49,30,100,94,87,30.14,29.89,29.72,10,6,1,29,12,36,0.67,8,Rain,282
2013-1-14,33,28,22,26,20,18,89,82,74,30.48,30.36,30.16,10,9,7,18,10,23,0.00,8,,342
2013-1-15,32,28,23,24,21,18,81,75,69,30.41,30.32,30.13,10,10,7,15,9,17,0.00,7,,43
2013-1-16,35,32,28,27,24,21,92,77,61,30.09,30.03,29.98,10,8,4,17,9,21,0.00,7,,271
2013-1-17,41,32,23,29,24,16,85,72,59,30.41,30.20,30.10,10,9,7,20,10,25,0.00,5,,300
2013-1-18,37,28,18,23,17,13,84,62,40,30.54,30.41,30.21,10,10,10,23,12,32,0.00,1,,211
2013-1-19,52,44,35,30,25,23,64,50,35,30.19,30.04,29.89,10,10,10,29,19,36,0.00,1,,211
2013-1-20,45,34,22,36,17,10,70,58,46,30.25,30.12,29.89,10,10,10,35,15,43,0.00,4,,287
2013-1-21,23,16,9,14,8,-3,73,66,58,30.26,30.12,30.06,10,8,1,28,17,35,0.01,7,Snow,281
2013-1-22,15,10,4,1,-2,-4,76,61,46,30.40,30.33,30.20,10,10,10,21,12,25,0.00,3,,276
2013-1-23,20,14,8,14,7,-1,84,64,43,30.37,30.24,30.07,10,7,1,16,8,20,0.02,7,Snow,238
2013-1-24,21,14,7,16,8,2,84,70,56,30.61,30.42,30.10,10,9,2,23,9,31,T,6,Snow,2
2013-1-25,24,21,17,19,14,8,84,73,62,30.46,30.17,30.03,10,6,0,17,10,21,0.30,8,Fog-Snow,171
2013-1-26,27,22,17,20,17,13,84,76,68,30.48,30.32,30.14,9,8,6,20,8,23,0.00,7,,303
2013-1-27,34,23,12,33,20,10,92,78,63,30.48,30.37,30.15,9,7,3,20,10,23,0.20,6,Rain,123
2013-1-28,50,42,33,50,43,33,100,95,89,30.15,30.07,30.01,7,3,0,21,15,28,0.23,8,Fog-Rain,201
2013-1-29,63,57,50,57,53,50,100,86,72,30.04,29.89,29.57,10,6,0,28,17,36,0.01,7,Fog-Rain,192
2013-1-30,66,49,31,57,47,27,100,87,73,29.52,29.39,29.27,10,8,2,33,21,43,0.82,8,Rain-Snow,232
2013-1-31,31,23,14,23,17,7,81,70,58,30.05,29.83,29.57,10,5,0,37,21,46,0.07,8,Snow,273